[Iaude] MPEC N52: 2017 FW241 [a=36.27,e=0.07,i=11.6,H=9.1]
    mpec at cfa.harvard.edu 
    mpec at cfa.harvard.edu
       
    Fri Jul  5 11:04:43 EDT 2024
    
    
  
M.P.E.C. 2024-N52                                  Issued 2024 July 5, 15:03 UT
     The Minor Planet Electronic Circulars contain information on unusual
         minor planets, routine data on comets and natural satellites,
         and occasional editorial announcements.  They are published
    on behalf of Division F of the International Astronomical Union by the
          Minor Planet Center, Smithsonian Astrophysical Observatory,
                          Cambridge, MA 02138, U.S.A.
			  
             Prepared using the Tamkin Foundation Computer Network
                              MPC at CFA.HARVARD.EDU
            URL https://www.minorplanetcenter.net/    ISSN 1523-6714
                                   2017 FW241                                   
Observations:
     K17FO1W 1C2016 01 09.59679910 05 31.51 +03 15 37.4                WEN052T09
     K17FO1W 1C2016 01 09.65591810 05 31.27 +03 15 38.0                WEN052T09
     K17FO1W 4C2017 03 22.41317 10 05 55.03 +02 49 23.6          23.4 z1EN052T09
     K17FO1W 4C2017 03 22.43886 10 05 54.91 +02 49 24.6          23.9 z1EN052T09
     K17FO1W 4C2017 03 22.48627 10 05 54.70 +02 49 25.8          23.9 z1EN052T09
     K17FO1W*4C2017 03 25.24382 10 05 42.27 +02 50 50.7          25.0 r1EN052T09
     K17FO1W 4C2017 03 25.25752 10 05 42.20 +02 50 51.0          24.7 r1EN052T09
     K17FO1W 4C2017 03 25.27122 10 05 42.14 +02 50 51.4          24.5 r1EN052T09
     K17FO1W 4C2017 03 25.28496 10 05 42.08 +02 50 51.9          24.6 r1EN052T09
     K17FO1W 1C2017 03 29.27530810 05 25.02 +02 52 52.3                WEN052T09
     K17FO1W 1C2017 03 29.30317610 05 24.91 +02 52 53.3                WEN052T09
     K17FO1W 1C2018 01 17.49401310 18 09.94 +01 26 09.0                WEN052T09
     K17FO1W 1C2018 01 17.64964810 18 09.25 +01 26 10.8                WEN052T09
     K17FO1W 1C2019 04 04.37687610 18 14.87 +01 04 52.3                WEN052T09
     K17FO1W 1C2019 04 05.37165910 18 10.99 +01 05 22.7                WEN052T09
Observer details:
T09 Subaru Telescope, Maunakea.  Observers , H. Aihara, Y. AlSayyad, M. Ando,
    R. Armstrong, J. Bosch, E. Egami, H. Furusawa, J. Furusawa, S. Harasawa,
    Y. Harikane, B.-C. Hsieh, H. Ikeda, K. Ito, I. Iwata, T. Kodama, M. Koike,
    M. Kokubo, Y. Komiyama, X. Li, Y. Liang, Y.-T. Lin, R. H. Lupton, N. B.
    Lust, L. A. MacArthur, K. Mawatari, S. Mineo, H. Miyatake, S. Miyazaki, S.
    More, T. Morishima, H. Murayama, K. Nakajima, F. Nakata, A. J. Nishizawa,
    M. Oguri, N. Okabe, Y. Okura, Y. Ono, K. Osato, M. Ouchi, Y.-C. Pan, A. A.
    Plazas Malagon, P. A. Price, S. L. Reed, E. S. Rykoff, T. Shibuya, M.
    Simunovic, M. A. Strauss, K. Sugimori, Y. Suto, N. Suzuki, M. Takada, Y.
    Takagi, T. Takata, S. Takita, M. Tanaka, S. Tang, D. S. Taranu, T. Terai,
    Y. Toba, E. L. Turner, H. Uchiyama, B. Vijarnwannaluk, C. Z. Waters, Y.
    Yamada, N. Yamamoto, T. Yamashita.  Measurers S. Deen, T. G. Fisher.
    8.3-m Subaru Telescope + CCD, 8.2-m f/2.0 reflector + CCD(HSC).
Orbital elements:
2017 FW241                                                                      
Epoch 2024 Mar. 31.0 TT = JDT 2460400.5                 Alexandersen            
M  45.80358              (2000.0)            P               Q                  
n   0.00451215     Peri.  185.26158     -0.41635933     -0.88915639             
a  36.2699800      Node   289.45502     +0.84134763     -0.29763808             
e   0.0712724      Incl.   11.61615     +0.34464340     -0.34758091             
P 218              H    9.14          G   0.15           U   5                  
Residuals in seconds of arc
160109 T09  0.0   0.0     170325 T09  0.0   0.1+    170329 T09  0.0   0.1+
160109 T09  0.0   0.1+    170325 T09  0.1-  0.0     180117 T09  0.0   0.0
170322 T09  0.0   0.1-    170325 T09  0.1-  0.1-    180117 T09  0.0   0.0
170322 T09  0.0   0.2+    170325 T09  0.1-  0.0     190404 T09  0.1+  0.0
170322 T09  0.2+  0.1-    170329 T09  0.1-  0.1-    190405 T09  0.1-  0.0
Ephemeris:
2017 FW241               a,e,i = 36.27, 0.07, 12                 q = 33.6849
Date    TT    R. A. (2000) Decl.     Delta      r    Elong.  Phase     V
2024 06 05    10 49 02.5 -03 04 10  34.5599 34.5806    90.3     1.7    24.7
...
2024 06 20    10 49 35.0 -03 03 30  34.8092 34.5830    76.3     1.6    24.8
...
2024 06 28    10 50 01.3 -03 04 13  34.9370 34.5843    68.9     1.6    24.8
...
2024 07 04    10 50 24.9 -03 05 13  35.0288 34.5853    63.4     1.5    24.8
2024 07 05    10 50 29.2 -03 05 26  35.0436 34.5854    62.5     1.5    24.8
2024 07 06    10 50 33.5 -03 05 39  35.0584 34.5856    61.6     1.5    24.8
...
2024 07 12    10 51 01.2 -03 07 13  35.1440 34.5866    56.1     1.4    24.8
...
2024 07 20    10 51 42.4 -03 09 55  35.2492 34.5879    48.8     1.3    24.7
...
2024 08 04    10 53 10.9 -03 16 47  35.4138 34.5903    35.3     1.0    24.7
M. P. C. Staff               (C) Copyright 2024 MPC           M.P.E.C. 2024-N52
    
    
More information about the Iaude
mailing list